{"data":{"norad_id":64621,"epoch":"2026-05-24T23:20:31.177248Z","epoch_age_seconds":90633,"freshness":"FRESH","line1":"1 64621U 25138A   26144.97258307  .00003358  00000+0  16820-3 0  9994","line2":"2 64621  97.4347 147.8172 0012835 217.9547 142.0783 15.17999731 50348","mean_motion":15.17999731,"eccentricity":0.0012835,"inclination_deg":97.4347,"raan_deg":147.8172,"arg_perigee_deg":217.9547,"mean_anomaly_deg":142.0783,"bstar":0.0001682,"rev_number":5034,"period_min":94.86167688919,"perigee_km":503.04328823548,"apogee_km":520.72997890286,"semimajor_km":6890.0236335692,"source":"CELESTRAK","updated_at":"2026-05-25T13:38:04.669606Z"}}